This is the latest recevied weather packets stored in our database for station/object KC8YYF. If no packets are shown the sender has not sent any weather packets the latest 10 day(s).
| Time | Temp. | Humidity | Pressure | Rain* | Wind** | Luminosity | Snow |
|---|---|---|---|---|---|---|---|
| 1777384257 | 13.33° C | 97% | 1014.1 hPa | 0 mm | - | 43 W/m² | - |
| 1777383953 | 12.78° C | 97% | 1013.9 hPa | 0 mm | - | 37 W/m² | - |
| 1777383649 | 12.78° C | 98% | 1013.9 hPa | 0 mm | - | 29 W/m² | - |
| 1777383346 | 12.78° C | 98% | 1014 hPa | 0 mm | - | 32 W/m² | - |
| 1777383042 | 12.78° C | 98% | 1014.1 hPa | 0 mm | - | 23 W/m² | - |
| 1777382738 | 12.78° C | 99% | 1014.1 hPa | 0 mm | - | 37 W/m² | - |
| 1777382435 | 12.78° C | 99% | 1014.1 hPa | 0 mm | - | 38 W/m² | - |
| 1777382131 | 12.78° C | 99% | 1014 hPa | 0 mm | - | 37 W/m² | - |
| 1777381828 | 12.78° C | 99% | 1014 hPa | 0 mm | - | 32 W/m² | - |
| 1777381526 | 12.22° C | 99% | 1013.9 hPa | 0 mm | - | 35 W/m² | - |
| 1777381222 | 12.22° C | 99% | 1013.9 hPa | 0 mm | - | 35 W/m² | - |
| 1777380920 | 12.22° C | 99% | 1014 hPa | 0 mm | - | 27 W/m² | - |
| 1777380617 | 12.22° C | 99% | 1014 hPa | 0 mm | - | 23 W/m² | - |
| 1777380313 | 12.22° C | 99% | 1013.9 hPa | 0 mm | - | 35 W/m² | - |
| 1777380009 | 12.22° C | 99% | 1013.8 hPa | 0 mm | - | 27 W/m² | - |
| 1777379705 | 12.22° C | 99% | 1013.6 hPa | 0 mm | - | 15 W/m² | - |
| 1777379401 | 11.67° C | 99% | 1013.7 hPa | 0 mm | - | 17 W/m² | - |
| 1777379096 | 11.67° C | 99% | 1013.4 hPa | 0 mm | - | 9 W/m² | - |
| 1777378790 | 11.67° C | 99% | 1013.6 hPa | 0 mm | - | 11 W/m² | - |
| 1777378488 | 11.67° C | 99% | 1013.5 hPa | 0 mm | - | 15 W/m² | - |
| 1777378183 | 11.67° C | 99% | 1013.6 hPa | 0 mm | - | 13 W/m² | - |
| 1777377882 | 11.67° C | 99% | 1013.7 hPa | 0 mm | - | 16 W/m² | - |
| 1777377581 | 11.67° C | 99% | 1013.6 hPa | 0 mm | - | 11 W/m² | - |
| 1777377277 | 11.67° C | 99% | 1013.4 hPa | 0 mm | - | 11 W/m² | - |
| 1777376974 | 11.67° C | 99% | 1013.2 hPa | 0 mm | - | 11 W/m² | - |
* Rain latest hour (hover to see other rain measurements)
** Current wind speed in m/s (hover to see current wind gust speed)